RH
93 93 90 92 93 90 89 99 96 99 100 98 94 64 69 60 78 88 98 56 51 76 72 68 64 69 68 83 78 79 94 94 75 80 61 42 42 28 26 31 38 42 59 65 53
90 91 92 93 93 93 92 89 100 98 100 98 95 84 80 60 82 97 58 63 71 70 77 70 74 72 86 86 90 89 94 76 62 71 77 65 63 54 27 30 50 67 65 55 46
99 97 99 98 95 94 94 94 94 100 98 96 95 94 69 71 91 82 41 72 73 81 71 67 69 73 87 85 89 90 92 72 62 71 81 72 67 54 43 27 38 68 75 47 45
96 93 81 85 97 99 96 95 93 95 99 96 96 89 68 82 86 50 48 66 75 75 78 80 80 89 86 94 85 94 85 73 73 67 81 83 64 73 55 42 31 61 59 48 49
86 88 84 82 86 93 99 98 94 95 95 99 99 93 80 95 82 43 50 54 74 80 85 86 91 87 88 79 82 92 82 80 79 77 70 75 85 70 71 44 36 60 56 50 50
91 90 89 87 89 91 94 97 100 99 97 94 99 90 94 96 46 48 51 52 71 80 87 86 86 76 75 74 78 69 71 71 83 80 70 74 77 68 62 42 50 59 60 55 55
88 85 89 89 90 95 94 88 96 100 99 99 96 97 96 76 40 43 47 52 56 74 83 80 80 88 74 60 52 59 72 91 88 80 73 64 74 85 57 49 48 54 55 56 57
80 88 85 85 88 83 84 87 91 66 72 98 95 97 83 57 47 41 52 64 61 65 72 65 76 82 78 60 50 71 76 95 90 83 74 73 84 64 50 45 43 52 55 54 58
79 80 79 82 82 86 88 89 77 40 73 97 97 95 90 51 69 49 57 51 56 70 74 62 80 82 80 74 69 81 90 88 93 88 86 77 75 57 47 45 40 49 54 54 58
76 77 77 77 76 80 84 77 43 84 91 98 89 92 69 60 46 51 54 48 43 53 61 62 71 87 95 88 95 92 93 84 85 92 84 95 78 59 47 50 54 42 48 53 56
76 79 80 78 78 76 86 87 68 72 80 85 75 74 54 50 41 50 52 44 45 64 90 74 83 89 81 80 68 65 76 84 73 90 88 93 82 68 57 51 54 40 46 52 54
72 76 79 78 77 79 53 86 82 86 93 65 61 66 47 42 50 44 48 53 59 67 79 88 95 71 69 74 73 81 71 76 66 83 91 83 88 73 62 66 52 38 43 48 52
69 68 74 76 69 77 62 75 53 73 95 71 61 63 59 58 61 52 47 53 58 68 75 79 68 60 69 74 86 87 82 74 66 75 87 85 94 83 67 50 53 31 36 42 51
70 72 74 73 62 58 71 56 64 78 93 65 62 58 50 56 70 45 43 49 63 67 70 74 56 69 74 76 72 87 63 58 64 60 90 82 84 85 74 57 39 28 30 42 47
74 76 78 78 76 80 46 66 69 81 100 33 48 36 53 55 42 57 41 48 62 68 68 73 74 73 78 73 63 69 60 60 64 72 84 70 89 68 69 69 54 43 26 37 43
77 76 78 73 73 66 67 67 81 93 91 53 46 47 68 58 42 50 51 42 46 58 61 57 51 60 58 54 58 60 76 85 90 94 98 75 78 68 68 67 54 40 33 32 44
81 76 73 62 69 60 65 81 94 91 45 51 57 51 60 68 60 53 62 65 62 76 71 62 63 49 51 62 58 68 100 98 98 98 90 63 63 55 35 38 49 45 33 28 42
88 62 42 44 58 68 67 87 95 60 67 54 68 61 64 61 62 58 70 75 58 62 73 76 74 60 47 57 80 92 98 93 90 96 84 62 77 46 32 28 24 34 37 30 41
89 55 48 34 52 60 94 91 82 67 59 69 64 76 72 60 65 62 72 68 61 56 70 76 73 46 44 60 63 98 99 65 81 68 65 62 45 29 31 32 33 25 29 31 40
89 72 63 48 44 53 94 90 69 73 90 61 93 80 95 93 93 71 71 59 59 51 49 57 71 48 46 56 68 86 70 96 98 96 77 58 44 43 38 31 36 32 30 38 45
80 91 43 39 46 90 96 90 96 90 100 95 80 87 93 92 83 98 97 55 50 52 48 53 55 53 49 53 69 71 96 98 92 94 94 75 57 34 29 32 33 33 38 44 49
92 98 37 45 86 93 90 91 69 75 46 80 99 96 94 83 93 81 80 74 49 46 61 49 57 64 60 44 46 52 73 83 94 99 96 76 76 34 36 35 38 38 42 49 50
100 96 53 60 97 94 83 63 49 48 49 59 88 80 87 94 90 84 80 69 66 86 60 54 80 88 70 52 47 53 48 56 60 66 78 71 65 42 47 47 47 55 57 57 62
100 97 79 84 87 87 95 70 64 51 56 54 75 61 56 78 60 84 65 66 56 57 69 60 98 68 68 52 54 57 48 51 54 73 59 60 41 31 49 54 61 64 61 66 79
100 94 81 93 80 79 80 91 80 61 48 48 63 45 68 81 70 68 57 53 52 54 97 94 98 86 56 42 49 47 44 48 60 51 62 41 45 32 38 52 60 65 71 84 86
99 98 98 96 82 87 80 89 70 71 75 69 64 64 57 67 60 78 63 54 69 61 65 92 97 82 76 47 49 50 47 48 45 40 42 37 36 30 50 57 65 72 80 86 85
99 99 100 96 92 93 88 72 78 65 65 60 65 70 71 56 47 52 53 62 71 75 68 91 97 96 83 55 56 68 48 48 49 42 39 50 33 45 58 56 66 74 76 82 80
Wind_Speed
18 17 18 18 18 17 18 18 18 18 18 18 18 18 16 16 15 11 11 13 13 17 6 4 4 7 7 2 2 0 3 5 13 9 8 8 10 9 3 5 3 3 6 16 30
17 17 17 18 19 19 19 18 18 18 18 18 17 17 16 16 16 16 23 12 15 12 13 8 4 9 4 6 3 4 4 9 6 8 2 14 6 12 3 3 5 4 6 27 29
18 17 18 19 20 20 20 20 19 18 18 17 17 16 15 14 6 8 3 20 16 15 13 8 6 3 6 4 5 5 5 8 10 11 11 11 15 7 8 1 2 6 18 18 24
19 20 19 20 21 20 21 20 20 19 18 18 17 15 12 5 7 5 3 11 20 20 13 5 4 3 7 8 6 4 8 8 2 9 12 9 12 18 4 7 10 10 20 14 16
20 22 22 22 22 23 21 20 21 19 18 17 16 14 8 5 11 12 8 6 21 18 17 7 6 5 5 8 8 7 7 7 8 13 13 16 19 8 21 12 2 10 10 14 13
19 19 21 22 24 25 24 25 24 22 21 17 15 10 5 13 15 12 14 13 21 25 16 10 7 8 5 7 12 7 13 11 7 14 15 20 23 3 9 6 5 11 10 10 13
21 21 22 24 23 23 24 27 28 26 22 20 15 10 8 21 12 4 13 22 22 26 9 19 15 3 1 4 7 7 6 1 7 15 9 15 18 19 25 8 7 7 8 9 9
22 23 24 25 25 26 28 28 29 30 26 23 14 11 10 15 18 29 16 17 18 20 22 12 10 5 4 5 2 6 5 5 8 15 9 20 23 27 26 8 9 10 7 11 10
24 26 28 28 29 30 31 35 32 26 22 11 7 8 9 8 13 28 23 17 14 15 18 5 6 4 2 5 2 5 5 11 6 18 8 21 10 24 26 12 8 9 10 11 8
26 28 30 31 34 36 39 34 23 13 5 7 6 2 8 7 8 11 20 23 6 6 3 5 4 4 5 7 10 4 3 5 9 9 13 17 14 9 27 21 13 12 12 13 13
28 30 32 35 36 40 33 12 5 3 4 8 8 5 4 6 6 8 25 17 7 5 8 4 9 14 17 15 7 5 5 9 6 8 9 15 19 16 12 25 19 13 14 15 17
28 30 32 34 42 33 20 7 8 10 14 19 23 22 34 7 3 7 25 10 9 11 7 3 17 16 7 13 16 8 4 7 5 7 14 14 20 23 17 18 25 19 19 19 15
30 32 33 35 39 7 23 6 24 25 6 8 17 14 16 26 19 11 20 8 14 14 18 17 5 16 14 9 13 18 18 10 7 4 12 5 16 18 17 16 23 19 23 20 22
31 32 32 36 14 26 18 18 22 20 5 7 6 7 7 9 7 23 23 17 7 19 12 13 13 9 15 17 14 18 15 13 8 4 5 12 6 13 20 19 19 18 20 22 26
30 34 32 32 20 9 17 22 27 2 3 5 5 5 6 12 3 10 19 4 12 9 9 9 8 16 11 15 19 15 10 18 5 9 5 5 4 6 20 22 27 27 21 22 22
30 35 36 27 16 21 17 25 11 2 9 6 2 3 4 5 3 3 11 3 6 5 8 13 6 9 15 19 18 10 3 3 2 3 5 14 13 5 10 32 33 25 23 20 20
27 35 36 20 8 20 19 9 3 7 3 5 3 2 4 6 5 2 14 16 13 11 17 4 15 9 7 9 16 13 6 3 5 5 10 10 8 17 11 17 26 29 24 21 22
26 33 37 22 14 14 5 3 10 5 7 4 7 8 7 6 8 9 8 12 18 5 3 12 10 18 12 14 7 19 5 4 6 6 3 7 10 14 20 23 10 19 27 23 25
24 27 27 15 11 16 3 7 4 2 4 9 8 4 3 1 4 5 10 13 15 21 8 7 8 4 13 7 15 7 7 3 2 2 0 6 6 9 8 10 8 12 19 23 25
18 11 15 8 17 6 1 8 5 9 13 7 3 4 3 5 7 2 6 7 13 22 21 4 4 7 8 8 13 8 9 4 2 5 5 5 4 12 7 17 7 11 21 21 22
6 3 7 11 19 2 3 4 5 9 12 7 5 5 4 5 6 3 3 8 12 9 18 16 0 4 4 12 15 6 6 3 3 4 3 2 6 4 8 7 11 15 17 21 22
4 2 10 24 4 1 3 4 8 10 10 6 6 5 6 7 5 8 8 7 10 6 10 21 6 11 10 5 13 13 9 6 3 5 4 3 6 3 4 5 7 6 10 14 18
2 3 6 1 1 3 2 5 7 10 10 5 7 11 16 7 6 8 8 5 15 11 7 5 7 2 4 3 2 12 9 15 1 3 7 7 7 2 4 7 5 13 14 16 18
2 3 4 3 1 4 1 5 6 9 6 4 4 7 15 9 11 13 11 9 19 9 22 13 5 13 14 5 5 5 9 10 14 4 7 15 10 14 5 8 6 8 15 17 17
2 4 4 4 3 3 2 3 10 8 3 6 3 8 5 7 13 5 12 19 11 11 8 6 4 12 19 12 6 7 15 14 12 23 9 16 12 10 6 11 15 16 16 18 18
2 2 2 4 2 6 6 4 11 8 1 9 11 10 12 11 12 21 16 13 9 5 8 8 4 6 17 20 12 7 13 20 26 28 27 8 6 3 4 10 9 14 18 19 19
6 5 3 3 3 4 4 6 7 3 7 9 6 11 15 16 13 13 13 18 17 14 12 4 5 3 5 10 7 15 15 14 15 20 19 11 26 5 3 11 17 17 18 19 19
Wind_Direction
4 1 357 353 348 341 330 321 310 309 308 307 308 312 315 312 304 289 246 238 221 195 227 246 224 192 157 124 151 52 203 232 220 152 291 329 357 339 343 110 26 7 147 149 140
357 354 351 350 347 343 339 325 317 308 308 304 306 308 310 316 304 262 251 247 215 220 212 189 214 168 172 165 216 174 206 222 204 149 208 312 5 322 321 14 14 31 84 133 139
6 349 345 342 341 342 338 334 322 313 306 302 302 306 312 324 303 243 160 215 207 190 200 192 233 182 192 131 206 219 216 215 243 173 113 313 315 330 347 56 177 220 145 145 143
347 340 335 338 342 332 331 332 330 321 312 306 300 302 307 308 274 194 124 207 199 205 215 204 205 214 190 197 189 214 230 234 204 201 157 238 333 321 7 267 280 191 159 150 151
338 340 332 330 326 325 332 326 323 320 315 308 303 301 311 236 245 241 192 180 189 197 197 191 187 186 210 195 192 211 222 210 195 180 199 186 259 283 295 298 256 152 180 160 155
354 350 344 333 326 321 321 312 316 311 308 302 293 284 245 251 258 258 227 206 193 199 204 194 211 202 225 211 197 214 225 231 182 200 201 187 224 269 282 40 54 159 180 174 162
349 346 343 339 336 330 318 307 304 303 300 298 286 266 241 237 236 230 230 204 201 206 190 214 225 165 203 253 208 236 229 146 188 196 191 201 218 227 248 251 191 213 190 180 180
346 342 337 333 330 324 317 309 301 288 288 294 267 252 250 260 263 252 241 210 206 211 207 213 177 170 201 298 268 189 174 214 190 176 213 177 218 215 235 217 220 189 201 191 191
346 342 339 334 330 324 317 308 295 290 283 270 215 208 260 278 232 237 227 205 185 204 219 206 168 182 281 199 227 211 230 212 186 190 161 193 209 212 225 213 199 190 190 197 184
345 342 339 335 330 326 321 311 305 297 233 189 218 201 265 238 221 215 208 199 156 132 157 175 203 207 199 198 212 178 212 270 215 194 200 196 222 200 217 220 213 200 191 194 192
343 341 339 336 332 332 332 337 16 23 214 203 193 221 270 225 186 187 183 171 129 141 194 220 213 217 214 202 239 178 191 217 234 196 185 213 223 232 213 202 222 227 193 195 197
339 338 337 335 331 332 354 336 16 322 288 232 246 235 249 268 278 215 171 162 173 194 149 200 229 220 190 206 225 246 234 229 271 188 192 216 220 229 235 213 206 203 194 194 187
336 336 335 336 331 340 335 288 334 346 273 260 220 229 232 222 237 208 173 164 193 194 192 208 203 204 205 198 203 221 227 209 206 152 205 205 233 224 228 223 212 211 204 190 185
334 334 338 340 343 331 306 330 338 341 281 276 239 247 203 163 247 206 195 173 195 206 198 232 234 179 207 216 205 224 221 237 229 178 228 189 258 209 214 209 214 216 209 202 188
332 329 333 335 295 299 300 325 332 267 318 257 239 168 154 164 211 208 180 137 185 162 168 211 198 218 220 216 209 230 186 213 211 181 291 218 244 253 192 209 215 215 209 204 198
330 325 329 331 305 285 314 318 316 241 244 288 284 160 138 222 276 54 166 151 152 184 236 220 213 197 218 221 205 157 171 95 94 119 233 217 195 259 188 209 213 213 213 195 193
327 321 325 319 279 318 310 314 222 221 273 269 336 260 222 191 235 126 178 193 194 206 231 238 231 250 194 208 204 192 170 171 173 194 235 214 193 240 218 206 213 211 209 196 185
327 324 324 323 348 344 303 239 230 207 248 5 344 284 204 170 228 196 167 198 216 183 181 212 241 206 211 205 184 197 197 159 166 190 229 150 223 232 231 254 238 225 200 179 187
329 331 316 337 15 351 270 222 238 301 331 355 341 336 276 276 322 174 209 210 200 207 209 197 237 238 193 187 173 167 193 164 138 210 132 205 249 303 230 224 219 202 186 188 184
326 309 289 333 322 305 308 227 250 10 348 334 308 288 303 359 342 306 204 216 211 211 209 247 266 202 203 140 202 180 151 187 215 161 226 257 247 219 228 214 190 186 181 180 177
308 337 285 317 331 60 203 286 1 337 351 327 326 267 272 317 301 314 277 294 212 213 207 224 293 311 124 207 184 164 176 164 132 150 208 297 256 246 235 226 201 182 177 172 172
307 270 295 318 9 334 312 7 328 314 345 318 292 316 264 290 281 252 231 235 35 312 204 216 210 233 221 256 203 201 179 156 160 188 218 156 276 227 228 244 151 135 157 157 163
261 260 312 207 164 307 258 299 289 319 334 359 310 350 7 317 302 250 269 279 20 340 354 298 224 244 321 330 28 200 203 198 141 79 212 218 258 157 49 67 141 138 142 149 150
292 304 301 45 160 154 24 295 316 304 286 308 283 335 344 337 344 317 303 327 334 321 309 313 220 223 222 218 149 190 192 195 210 189 212 227 249 266 107 129 121 142 146 146 153
219 236 206 279 283 214 148 250 294 312 293 332 288 307 345 316 319 251 325 317 306 315 350 337 255 218 243 244 204 205 208 199 200 224 200 240 234 274 221 180 169 155 145 142 151
252 264 234 263 210 242 261 227 273 282 209 292 280 307 310 290 281 290 288 289 274 312 3 326 282 228 225 234 222 227 207 210 216 218 226 208 220 289 102 117 150 160 153 151 154
229 244 268 238 235 177 208 239 236 271 278 248 319 304 293 287 278 289 283 273 260 263 278 265 274 335 231 205 194 242 207 207 211 227 225 218 232 134 162 166 171 167 164 156 150